TimeEST,TemperatureF,Dew PointF,Humidity,Sea Level PressureIn,VisibilityMPH,Wind Direction,Wind SpeedMPH,Gust SpeedMPH,PrecipitationIn,Events,Conditions,WindDirDegrees,DateUTC
12:13 AM,32.0,26.6,80,30.21,10.0,NNE,8.1,-,N/A,,Overcast,20,2012-11-05 05:13:00
12:43 AM,32.0,26.6,80,30.21,10.0,NNE,9.2,-,N/A,,Overcast,30,2012-11-05 05:43:00
12:54 AM,32.0,25.0,75,30.24,10.0,NNE,11.5,-,N/A,,Overcast,30,2012-11-05 05:54:00
1:54 AM,30.9,23.0,72,30.25,10.0,NNE,11.5,-,N/A,,Overcast,20,2012-11-05 06:54:00
2:54 AM,30.0,23.0,75,30.26,10.0,NE,10.4,-,N/A,,Overcast,40,2012-11-05 07:54:00
3:54 AM,30.0,23.0,75,30.26,10.0,NNE,6.9,-,N/A,,Overcast,30,2012-11-05 08:54:00
4:54 AM,30.0,21.9,72,30.27,10.0,NE,5.8,-,N/A,,Overcast,40,2012-11-05 09:54:00
5:54 AM,30.0,23.0,75,30.27,10.0,NE,3.5,-,N/A,,Overcast,50,2012-11-05 10:54:00
6:54 AM,30.0,21.0,69,30.27,10.0,NNE,6.9,-,N/A,,Overcast,20,2012-11-05 11:54:00
7:15 AM,30.2,19.4,64,30.24,10.0,NNE,5.8,-,N/A,,Overcast,20,2012-11-05 12:15:00
7:24 AM,30.2,19.4,64,30.24,10.0,North,5.8,-,N/A,,Overcast,10,2012-11-05 12:24:00
7:54 AM,30.0,21.0,69,30.29,10.0,NNE,9.2,-,N/A,,Overcast,20,2012-11-05 12:54:00
8:01 AM,30.2,21.2,69,30.26,10.0,North,8.1,-,N/A,,Overcast,10,2012-11-05 13:01:00
8:54 AM,30.0,19.9,66,30.30,10.0,NE,4.6,-,N/A,,Overcast,40,2012-11-05 13:54:00
9:54 AM,30.9,21.0,67,30.30,10.0,Calm,Calm,-,N/A,,Overcast,0,2012-11-05 14:54:00
10:54 AM,32.0,21.0,64,30.30,10.0,Calm,Calm,-,N/A,,Overcast,0,2012-11-05 15:54:00
11:24 AM,30.2,21.2,69,30.26,10.0,Calm,Calm,-,N/A,,Overcast,0,2012-11-05 16:24:00
11:54 AM,32.0,21.9,66,30.29,10.0,Calm,Calm,-,N/A,,Overcast,0,2012-11-05 16:54:00
12:09 PM,33.8,23.0,65,30.26,10.0,NW,4.6,-,N/A,,Overcast,310,2012-11-05 17:09:00
12:54 PM,33.1,21.9,64,30.27,9.0,Calm,Calm,-,0.00,Snow,Light Snow,0,2012-11-05 17:54:00
1:54 PM,34.0,21.9,61,30.25,9.0,North,3.5,-,0.00,Snow,Light Snow,360,2012-11-05 18:54:00
2:54 PM,34.0,21.9,61,30.25,10.0,North,5.8,-,0.00,,Overcast,350,2012-11-05 19:54:00
3:54 PM,34.0,21.9,61,30.25,10.0,North,3.5,-,N/A,,Overcast,10,2012-11-05 20:54:00
4:54 PM,33.1,21.9,64,30.24,10.0,NNE,5.8,-,N/A,,Overcast,20,2012-11-05 21:54:00
5:54 PM,32.0,21.9,66,30.24,10.0,Calm,Calm,-,N/A,,Overcast,0,2012-11-05 22:54:00
6:54 PM,32.0,21.9,66,30.25,10.0,Calm,Calm,-,N/A,,Overcast,0,2012-11-05 23:54:00
7:54 PM,32.0,21.9,66,30.24,10.0,Calm,Calm,-,N/A,,Overcast,0,2012-11-06 00:54:00
8:54 PM,32.0,23.0,69,30.23,10.0,Calm,Calm,-,N/A,,Overcast,0,2012-11-06 01:54:00
9:54 PM,30.9,23.0,72,30.23,10.0,Calm,Calm,-,N/A,,Overcast,0,2012-11-06 02:54:00
10:54 PM,30.9,24.1,76,30.21,10.0,Calm,Calm,-,N/A,,Overcast,0,2012-11-06 03:54:00
11:54 PM,30.9,24.1,76,30.19,10.0,Calm,Calm,-,N/A,,Overcast,0,2012-11-06 04:54:00